SCP
0 0 0 0 0 0 0 0 0 1 1 1 1 1 0 0 0 0 0 0 0 0 0 0 0 0 0 0 0 0 0 0 0 0 0 0 0 0 0 0 0 0 0
0 0 0 0 0 0 0 0 0 1 1 1 1 0 0 0 0 0 0 0 0 0 0 0 0 0 0 0 0 0 0 0 0 0 0 0 0 0 0 0 0 0 0
0 0 0 0 0 0 0 0 0 1 1 1 0 0 0 0 0 0 0 0 0 0 0 0 0 0 0 0 0 0 0 0 0 0 0 0 0 0 0 0 0 0 0
0 0 0 0 0 0 0 0 0 1 1 0 0 0 0 0 0 0 0 0 0 0 0 0 0 0 0 0 0 0 0 0 0 0 0 0 0 0 0 0 0 0 0
0 0 0 0 0 0 0 0 0 0 0 0 0 0 0 0 0 0 0 0 0 0 0 0 0 0 0 0 0 0 0 0 0 0 0 0 0 0 0 0 0 0 0
0 0 0 0 0 0 0 0 0 0 0 0 0 0 0 0 0 0 0 0 0 0 0 0 0 0 0 0 0 0 0 0 0 0 0 0 0 0 0 0 0 0 0
0 0 0 0 0 0 0 0 0 0 0 0 0 0 0 0 0 0 0 0 0 0 0 0 0 0 0 0 0 0 0 0 0 0 0 0 0 0 0 0 0 0 0
0 0 0 0 0 0 0 0 0 0 0 0 0 0 0 0 0 0 0 0 0 0 0 0 0 0 0 0 0 0 0 0 0 0 0 0 0 0 0 0 0 0 0
0 0 0 0 0 0 0 0 0 0 0 0 0 0 0 0 0 0 0 0 0 0 0 0 0 0 0 0 0 0 0 0 0 0 0 0 0 0 0 0 0 0 0
0 0 0 0 0 0 0 0 0 0 0 0 0 0 0 0 0 0 0 0 0 0 0 0 0 0 0 0 0 0 0 0 0 0 0 0 0 0 0 0 0 0 0
0 0 0 0 0 0 0 0 0 0 0 0 0 0 0 0 0 0 0 0 0 0 0 0 0 0 0 0 0 0 0 0 0 0 0 0 0 0 0 0 0 0 0
0 0 0 0 0 0 0 0 0 0 0 0 0 0 0 0 0 0 0 0 0 0 0 0 0 0 0 0 0 0 0 0 0 0 0 0 0 0 0 0 0 0 0
0 0 0 0 0 0 0 0 0 0 0 0 0 0 0 0 0 0 0 0 0 0 0 0 0 0 0 0 0 0 0 0 0 0 0 0 0 0 0 0 0 0 0
0 0 0 0 0 0 0 0 0 0 0 0 0 0 0 0 0 0 0 0 0 0 0 0 0 0 0 0 0 0 0 0 0 0 0 0 0 0 0 0 0 0 0
0 0 0 0 0 0 0 0 0 0 0 0 0 0 0 0 0 0 0 0 0 0 0 0 0 0 0 0 0 0 0 0 0 0 0 0 0 0 0 0 0 0 0
0 0 0 0 0 0 0 0 0 0 0 0 0 0 0 0 0 0 0 0 0 0 0 0 0 0 0 0 0 0 0 0 0 0 0 0 0 0 0 0 0 0 0
0 0 0 0 0 0 0 0 0 0 0 0 0 0 0 0 0 0 0 0 0 0 0 0 0 0 0 0 0 0 0 0 0 0 0 0 0 0 0 0 0 0 0
-0 -0 0 0 0 0 0 0 0 0 0 0 0 0 0 0 0 0 0 0 0 0 0 0 0 0 0 0 0 0 0 0 0 0 0 0 0 0 0 0 0 0 0
0 0 0 0 0 0 0 0 0 0 0 0 0 0 0 0 0 0 0 0 0 0 0 0 0 0 0 0 0 0 0 0 0 0 0 0 0 0 0 0 0 0 0
0 0 0 0 0 0 0 0 0 0 0 0 0 0 0 0 0 0 0 0 0 0 0 0 0 0 0 0 0 0 0 0 0 0 0 0 0 0 0 0 0 0 0
0 0 0 0 0 0 0 0 0 0 0 0 0 0 0 0 0 0 0 0 0 0 0 0 0 0 0 0 0 0 0 0 0 0 0 0 0 0 0 0 0 0 0
0 0 0 0 0 0 0 0 0 0 0 0 0 0 0 0 0 0 0 0 0 0 0 0 0 0 0 0 0 0 0 0 0 0 0 0 0 0 0 0 0 0 0
0 0 0 0 0 0 0 0 0 0 0 0 0 0 0 0 0 0 0 0 0 0 0 0 0 0 0 0 0 0 0 0 0 0 0 0 0 0 0 0 0 0 0
0 0 0 0 0 0 0 0 0 0 0 0 0 0 0 0 0 0 0 0 0 0 0 0 0 0 0 0 0 0 0 0 0 0 0 0 0 0 0 0 0 0 0
0 0 0 0 0 0 0 0 0 0 0 0 0 0 0 0 0 0 0 0 0 0 0 0 0 0 0 0 0 0 0 0 0 0 0 0 0 0 0 0 0 0 0
0 0 0 0 0 0 0 0 0 0 0 0 0 0 0 0 0 0 0 0 0 0 0 0 0 0 0 0 0 0 0 0 0 0 0 0 0 0 0 0 0 0 0
Wind_Speed
20 18 17 15 13 12 12 12 12 13 12 10 10 9 8 7 6 6 9 10 10 10 9 7 7 5 5 5 4 4 4 5 5 4 2 2 2 3 3 2 3 2 3
22 21 19 16 15 14 13 12 13 14 15 12 10 7 8 6 7 7 8 10 10 10 8 9 7 7 6 6 5 4 2 3 4 4 4 2 2 2 3 3 3 4 4
23 22 21 20 16 15 14 11 13 15 15 14 10 10 8 7 6 7 7 8 9 9 9 9 8 7 6 6 5 4 3 2 3 4 4 4 3 5 4 4 4 5 5
21 21 21 21 18 16 13 13 13 15 16 16 15 17 12 10 8 8 8 9 9 9 9 10 9 8 6 6 5 4 3 2 2 1 2 3 4 5 5 4 5 6 8
18 19 20 19 18 16 13 13 14 15 16 16 17 16 13 11 11 11 12 10 9 9 9 9 8 8 6 6 5 4 3 2 1 2 2 2 3 5 5 8 8 7 7
16 17 17 17 16 14 13 13 15 16 16 16 16 16 18 18 18 15 13 10 7 8 9 9 8 8 6 6 5 3 3 1 0 2 2 3 4 4 5 8 10 11 9
14 14 15 16 15 16 16 16 17 17 17 17 16 17 19 20 20 17 14 12 9 8 9 8 8 7 6 5 4 3 1 1 2 3 3 4 4 5 6 9 11 13 11
13 13 14 14 15 17 18 18 19 18 18 17 16 16 17 13 12 14 12 11 9 9 10 9 8 8 6 5 3 2 1 2 3 4 4 4 5 5 6 8 10 12 10
13 13 12 13 14 17 18 19 19 19 18 18 18 18 16 14 14 14 12 10 10 10 10 9 8 7 5 4 2 1 2 2 4 4 5 5 5 5 6 7 8 10 14
13 12 10 11 13 15 16 17 18 19 19 19 17 15 16 15 14 13 13 13 12 11 10 9 8 6 5 3 2 1 2 4 4 4 6 6 5 6 7 7 8 9 13
14 11 8 8 11 13 15 16 18 19 18 18 18 18 16 15 14 13 13 13 12 11 10 8 7 5 4 2 1 2 3 5 5 5 6 7 8 7 7 8 9 10 11
12 9 5 8 12 14 15 17 18 18 17 18 18 17 17 15 14 14 13 13 12 10 9 7 6 4 3 1 2 3 4 5 6 7 7 8 7 10 9 8 10 10 12
8 2 5 10 13 14 15 16 17 17 17 18 18 18 16 15 15 14 13 12 11 10 8 6 5 3 2 1 3 4 6 6 7 8 8 9 10 11 10 11 11 11 11
2 4 8 11 13 14 15 16 16 17 17 17 18 17 16 15 15 14 13 11 10 9 7 5 4 2 1 2 4 5 7 8 8 8 8 9 10 12 12 11 13 13 14
5 8 11 12 13 14 15 15 16 16 17 18 17 16 15 15 14 13 12 10 9 7 6 4 3 1 1 3 6 7 8 9 9 9 9 10 12 15 14 12 13 14 13
8 11 12 14 14 15 15 16 16 16 16 17 17 16 15 14 13 12 11 10 8 6 5 3 1 1 2 5 8 9 9 9 9 10 10 11 12 14 18 20 20 20 17
11 12 13 13 13 14 16 17 17 16 16 17 17 15 15 14 12 11 10 8 7 5 4 2 1 3 3 6 9 10 10 10 9 11 11 10 10 15 13 17 20 20 23
12 12 12 13 13 14 15 16 16 17 17 17 16 14 14 13 11 10 9 7 5 3 2 0 2 4 4 7 10 12 10 9 10 11 12 13 13 13 16 17 17 17 16
13 13 13 14 15 15 16 17 17 16 16 16 15 13 13 12 10 9 7 5 4 2 1 1 3 5 5 6 10 12 9 9 11 11 12 13 14 18 21 18 17 18 16
13 14 14 15 15 15 16 17 17 16 15 14 14 12 11 10 9 8 6 4 2 1 1 2 3 5 6 7 11 13 8 9 10 10 12 15 16 19 22 17 16 17 16
15 15 15 14 14 15 16 17 16 15 14 14 13 11 10 9 8 7 5 3 2 0 2 4 4 5 6 8 10 13 9 9 11 10 10 10 18 22 24 21 16 17 18
15 15 14 14 13 14 16 17 15 14 14 13 12 10 9 7 6 6 4 2 1 2 3 5 5 4 5 6 10 14 14 14 12 11 10 12 21 24 24 18 17 21 19
13 13 15 15 13 12 14 17 14 14 14 13 11 10 8 7 5 4 3 1 1 2 3 4 5 6 6 7 12 14 16 17 13 11 17 21 23 21 16 15 19 16 10
13 14 16 16 14 13 13 15 14 13 13 12 10 8 7 6 4 3 1 1 2 3 4 5 6 7 7 7 8 9 11 14 12 11 15 20 18 15 15 14 11 8 9
13 13 14 15 15 14 14 13 13 13 13 11 9 7 5 4 3 2 1 2 2 4 6 6 6 8 9 10 17 14 11 11 12 14 11 10 9 9 9 9 9 9 9
13 14 15 16 15 14 13 11 10 11 11 9 7 5 4 3 2 1 1 1 3 6 7 8 9 9 12 18 18 18 19 20 19 14 9 9 9 9 10 10 11 10 10
Wind_Direction
257 256 254 252 245 236 225 215 200 186 177 175 174 168 159 144 130 128 132 133 131 129 123 123 122 121 112 108 103 90 62 33 352 328 323 181 183 202 191 240 261 257 292
252 249 246 243 236 228 216 205 194 182 177 176 171 161 136 118 111 111 118 124 126 126 124 127 123 119 114 104 89 78 66 47 15 348 325 312 204 174 212 271 270 283 293
248 244 239 232 228 223 212 199 190 180 176 167 148 131 116 113 111 117 114 118 121 121 123 123 121 118 112 102 89 75 63 51 44 15 351 328 321 319 274 275 280 288 302
245 243 239 231 221 217 207 196 185 178 171 163 162 161 159 151 146 138 127 120 117 120 121 120 118 115 110 108 98 83 71 46 29 45 6 330 318 297 301 274 269 286 297
250 245 240 234 224 212 199 188 178 175 170 170 169 168 153 134 129 128 126 120 119 121 122 121 118 114 110 107 106 100 79 58 12 341 325 292 273 265 280 294 301 297 291
259 253 246 235 225 207 190 180 174 172 170 169 168 162 146 141 140 141 136 131 130 126 125 123 119 117 114 114 113 109 103 64 347 291 290 295 291 296 286 288 298 301 301
270 259 248 232 215 198 186 179 172 169 168 166 162 154 150 149 148 147 145 142 141 138 136 129 124 118 116 118 119 118 125 209 271 283 290 283 279 288 283 285 294 297 297
280 270 254 232 210 194 184 178 171 166 164 160 152 147 146 144 142 144 143 142 137 134 134 128 124 122 124 128 131 148 188 240 264 281 286 284 282 282 281 288 298 299 293
292 280 263 232 208 191 183 176 168 161 158 152 144 142 143 140 140 138 134 129 128 131 132 130 127 126 129 131 147 183 244 264 279 289 288 285 287 285 284 285 286 292 298
303 291 267 227 200 186 177 169 161 155 150 144 140 138 138 137 136 134 134 131 130 131 134 132 130 133 136 146 183 233 263 279 287 292 292 295 293 292 288 285 284 282 286
308 296 267 210 181 168 162 156 150 145 142 140 136 135 135 135 133 130 130 129 130 134 134 133 135 137 141 159 216 262 273 285 292 291 294 297 299 295 292 290 286 283 284
305 292 246 172 158 155 153 148 144 141 139 136 133 132 132 132 130 129 128 129 130 130 130 132 134 134 145 198 260 278 283 291 296 299 298 297 299 295 294 291 289 288 287
303 268 163 151 149 148 146 141 138 136 134 133 131 130 131 131 129 128 128 128 127 127 129 132 133 137 159 244 278 288 293 293 294 297 296 298 300 298 297 296 292 290 289
250 158 143 140 140 140 138 135 133 133 133 132 130 129 130 129 127 126 126 126 127 128 129 128 128 137 210 268 287 293 293 293 293 292 290 293 296 298 300 296 294 293 294
156 144 138 135 134 134 133 131 131 133 132 129 125 124 124 123 123 124 124 124 123 122 125 129 132 161 272 298 308 302 298 297 296 293 290 290 293 294 295 294 296 299 296
147 137 133 134 136 136 134 132 131 132 129 125 123 123 124 124 123 124 125 123 123 125 130 129 138 291 314 318 307 310 304 298 296 297 297 296 293 294 297 297 297 294 292
143 139 139 139 138 139 136 133 131 128 124 122 123 125 125 124 124 125 126 126 126 130 133 134 283 308 323 313 313 313 304 298 297 298 298 298 298 301 299 299 296 293 291
139 137 135 133 132 131 130 127 127 125 123 122 124 126 126 125 127 127 125 124 126 132 134 91 319 307 314 316 313 313 302 297 295 296 298 300 301 303 305 303 299 297 295
132 132 132 131 130 131 132 128 124 124 123 124 126 128 129 129 130 127 125 125 130 128 102 312 305 305 310 316 314 318 309 299 299 299 298 299 298 303 306 305 302 301 299
120 124 126 128 129 132 133 126 125 124 124 125 125 125 127 127 126 125 123 120 118 98 316 295 297 301 308 315 316 320 307 304 304 302 300 298 302 306 308 307 305 303 305
119 124 126 127 130 134 129 123 121 120 120 120 118 117 117 117 118 117 115 117 111 316 305 304 301 296 303 311 316 318 312 309 307 304 304 303 308 309 310 310 304 302 305
120 123 121 121 126 130 126 118 116 118 118 117 114 113 113 112 116 117 116 111 60 315 317 314 312 308 308 305 315 317 314 311 307 304 304 306 309 311 312 310 305 306 306
119 120 120 119 118 119 120 117 120 123 120 116 114 113 112 109 113 114 112 104 349 324 321 317 313 315 316 316 317 317 315 314 309 303 305 307 310 313 311 306 308 309 302
119 122 119 115 111 110 111 117 123 124 121 119 118 118 116 114 111 102 83 14 342 327 319 315 314 315 315 319 323 321 318 317 313 311 308 309 309 308 304 306 307 303 297
117 118 116 114 113 113 113 117 123 124 120 118 117 115 111 114 108 91 29 342 338 324 320 319 318 316 315 320 322 319 316 316 314 315 307 306 310 311 312 310 308 307 306
115 113 112 113 114 114 112 115 121 123 121 119 117 113 113 106 86 36 354 239 292 318 318 320 320 314 311 317 320 319 319 319 319 316 305 308 311 311 312 311 310 309 307